AEROCUBE 12B

Last updated on Mon Aug 14 2023 00:02:06 GMT+0000 (Coordinated Universal Time)

1 43557U 18046D 23225.45170354 .04518416 12129-4 10637-2 0 9993 2 43557 51.6047 245.3751 0002917 2.0549 358.0485 16.28931805284814

Satellite not in orbit

AEROCUBE 12B